sat.trackr.live / text

‹ back to catalog

KUIPER-00115

NORAD 65152 · 2025-171W

PAYLOAD ACTIVE UNKNOWN

§ Identity

Operator
Country
US
Launch date
2025-08-11
Launch site
AFETR
Launch vehicle
Mass (kg)
RCS (m²)

External: N2YO · Heavens-Above · Gunter

§ Orbital elements

Epoch: 2026-09-21T15:19:02.309952Z

Period
97.30 min
Inclination
51.9015°
Eccentricity
0.0000463
Mean motion
14.79932329 rev/d
Perigee alt
629.2 km
Apogee alt
629.9 km
Semi-major
7,007.7 km
B*
3.0868e-4
RAAN
21.6151°
Arg perigee
110.6931°
Mean anomaly
249.4081°
Rev number
6,176

§ Raw data

KUIPER-001151 65152U 25171W   26264.63822118  .00002133  00000+0  30868-3 0  99922 65152  51.9015  21.6151 0000463 110.6931 249.4081 14.79932329 61769

JSON: /api/v1/satellites/65152 · /tle

For live sub-satellite position, see the globe view (requires WebGL).

§ Visibility from observer

Set your observer location to see the next 7 days of passes ≥ 10°. The values pass through the URL so the page stays shareable.

No JS? Fill the form by hand. The geolocation button needs JavaScript.